STARLINK-1502 (45764 NORAD) Tracking and Keplerian Element Data

This shows tracking and keplerian element data for the satellite.

Feedback or suggestion? Click here.




ElementValue
Catalog45764
NameSTARLINK-1502
Epoch Orbit428
Epoch Day185.50001157
Epoch Year2020
RAAN197.5757
Inclination52.998
Eccentricity0.0001121
Argument of Perigee109.6772
Mean Anonmoly253.9925
Mean Motion15.63628423
Decay Rate-0.0099766
L11 45764U 20038AL 20185.50001157 -.00997660 00000-0 -11670-1 0 9999
L22 45764 52.9980 197.5757 0001121 109.6772 253.9925 15.63628423 4288

Live tracking and technical data element details for STARLINK-1502 (NORAD 45764). STARLINK-1502 can be tracked NOW for your location showing map with azimuth and elevation plus other details from your city location.

Track the satellite on the map from your city or location and see movement details for azimuth, elevation, latitude, longitude, range, height, and movement on the map or in text.







IsCatalogInMostPopularTable: catalog: 45764, numindb: 5
Update: records affected: 1



GetName: 45764 STARLINK-1502

Hit Count: updated at: Sat, 04 Jul 2020 02:29:29 GMT